| time (UTC) | temp F | wind direction | speed MPH | gust MPH | rain 1hr in | rain 24hr in | rain mn in | humidity % | barometer mb |
| 20260508224647 | 62 | 182 | 1.0 | 5.0 | 0.00 | 0.00 | 0.00 | 61 | 1021.1 |
| 20260508223834 | 62 | 173 | 2.0 | 5.0 | 0.00 | 0.00 | 0.00 | 62 | 1020.6 |
| 20260508223001 | 62 | 250 | 1.0 | 6.0 | 0.00 | 0.00 | 0.00 | 65 | 1021.1 |
| 20260508222934 | 62 | 148 | 2.0 | 6.0 | 0.00 | 0.00 | 0.00 | 65 | 1020.6 |
| 20260508222034 | 62 | 226 | 1.0 | 4.0 | 0.00 | 0.00 | 0.00 | 64 | 1020.7 |
| 20260508221602 | 61 | 168 | 1.0 | 4.0 | 0.00 | 0.00 | 0.00 | 65 | 1021.2 |
| 20260508221134 | 61 | 173 | 2.0 | 5.0 | 0.00 | 0.00 | 0.00 | 65 | 1020.7 |
| 20260508220234 | 61 | 176 | 2.0 | 6.0 | 0.00 | 0.00 | 0.00 | 63 | 1020.9 |
| 20260508220002 | 60 | 156 | 2.0 | 6.0 | 0.00 | 0.00 | 0.00 | 64 | 1021.5 |
| 20260508215334 | 60 | 177 | 3.0 | 6.0 | 0.00 | 0.00 | 0.00 | 65 | 1020.8 |
| 20260508214602 | 60 | 257 | 3.0 | 7.0 | 0.00 | 0.00 | 0.00 | 66 | 1021.3 |
| 20260508214434 | 60 | 168 | 2.0 | 7.0 | 0.00 | 0.00 | 0.00 | 65 | 1021.0 |
| 20260508213534 | 61 | 164 | 2.0 | 7.0 | 0.00 | 0.00 | 0.00 | 64 | 1020.8 |
| 20260508213006 | 61 | 137 | 1.0 | 5.0 | 0.00 | 0.00 | 0.00 | 65 | 1021.3 |
| 20260508212634 | 61 | 157 | 3.0 | 6.0 | 0.00 | 0.00 | 0.00 | 65 | 1020.9 |
| 20260508211734 | 61 | 158 | 1.0 | 5.0 | 0.00 | 0.00 | 0.00 | 64 | 1020.7 |
| 20260508211603 | 60 | 174 | 3.0 | 5.0 | 0.00 | 0.00 | 0.00 | 64 | 1021.2 |
| 20260508210834 | 61 | 160 | 1.0 | 8.0 | 0.00 | 0.00 | 0.00 | 65 | 1020.8 |
| 20260508210000 | 61 | 168 | 1.0 | 6.0 | 0.00 | 0.00 | 0.00 | 63 | 1021.3 |
| 20260508205934 | 61 | 191 | 1.0 | 6.0 | 0.00 | 0.00 | 0.00 | 62 | 1020.7 |
| 20260508205034 | 61 | 227 | 2.0 | 5.0 | 0.00 | 0.00 | 0.00 | 62 | 1020.6 |
| 20260508204602 | 60 | 213 | 0.0 | 7.0 | 0.00 | 0.00 | 0.00 | 63 | 1021.1 |
| 20260508204134 | 61 | 157 | 1.0 | 7.0 | 0.00 | 0.00 | 0.00 | 63 | 1020.5 |
| 20260508203002 | 60 | 124 | 0.0 | 8.0 | 0.00 | 0.00 | 0.00 | 65 | 1021.0 |
| 20260508202334 | 61 | 145 | 2.0 | 9.0 | 0.00 | 0.00 | 0.00 | 63 | 1020.4 |
| 20260508201606 | 61 | 126 | 3.0 | 7.0 | 0.00 | 0.00 | 0.00 | 61 | 1020.8 |
| 20260508201434 | 61 | 145 | 3.0 | 10.0 | 0.00 | 0.00 | 0.00 | 62 | 1020.3 |
| 20260508200534 | 62 | 134 | 3.0 | 10.0 | 0.00 | 0.00 | 0.00 | 62 | 1020.2 |
| 20260508200004 | 61 | 120 | 2.0 | 11.0 | 0.00 | 0.00 | 0.00 | 66 | 1020.8 |
| 20260508195634 | 60 | 155 | 3.0 | 11.0 | 0.00 | 0.00 | 0.00 | 67 | 1020.3 |
| 20260508194734 | 59 | 178 | 3.0 | 7.0 | 0.00 | 0.00 | 0.00 | 67 | 1020.3 |
| 20260508194601 | 59 | 129 | 2.0 | 7.0 | 0.00 | 0.00 | 0.00 | 66 | 1020.9 |
| 20260508193834 | 59 | 148 | 3.0 | 6.0 | 0.00 | 0.00 | 0.00 | 67 | 1020.3 |
| 20260508193001 | 58 | 94 | 2.0 | 7.0 | 0.00 | 0.00 | 0.00 | 69 | 1020.8 |
| 20260508192934 | 58 | 135 | 3.0 | 7.0 | 0.00 | 0.00 | 0.00 | 69 | 1020.2 |
| 20260508191603 | 57 | 151 | 3.0 | 8.0 | 0.00 | 0.00 | 0.00 | 71 | 1020.9 |
| 20260508190235 | 57 | 142 | 3.0 | 11.0 | 0.00 | 0.00 | 0.00 | 71 | 1020.4 |
| 20260508190002 | 56 | 122 | 4.0 | 11.0 | 0.00 | 0.00 | 0.00 | 71 | 1020.8 |
| 20260508185334 | 56 | 133 | 2.0 | 8.0 | 0.00 | 0.00 | 0.00 | 71 | 1020.3 |
| 20260508184602 | 56 | 160 | 0.0 | 6.0 | 0.00 | 0.00 | 0.00 | 72 | 1020.8 |
| 20260508184434 | 56 | 137 | 3.0 | 7.0 | 0.00 | 0.00 | 0.00 | 71 | 1020.4 |
| 20260508183001 | 55 | 167 | 0.0 | 7.0 | 0.00 | 0.00 | 0.00 | 73 | 1020.9 |
| 20260508182634 | 56 | 133 | 2.0 | 7.0 | 0.00 | 0.00 | 0.00 | 72 | 1020.3 |
| 20260508181734 | 56 | 135 | 3.0 | 7.0 | 0.00 | 0.00 | 0.00 | 72 | 1020.4 |
| 20260508181601 | 55 | 104 | 1.0 | 7.0 | 0.00 | 0.00 | 0.00 | 73 | 1020.8 |
| 20260508180834 | 56 | 133 | 3.0 | 7.0 | 0.00 | 0.00 | 0.00 | 71 | 1020.3 |
| 20260508180002 | 55 | 138 | 2.0 | 7.0 | 0.00 | 0.00 | 0.00 | 74 | 1020.8 |
| 20260508175935 | 55 | 135 | 2.0 | 7.0 | 0.00 | 0.00 | 0.00 | 74 | 1020.2 |
| 20260508175034 | 55 | 144 | 2.0 | 6.0 | 0.00 | 0.00 | 0.00 | 74 | 1020.2 |
| 20260508174602 | 54 | 181 | 1.0 | 4.0 | 0.00 | 0.00 | 0.00 | 74 | 1020.7 |
| 20260508173234 | 54 | 130 | 2.0 | 6.0 | 0.00 | 0.00 | 0.00 | 75 | 1020.2 |
| 20260508173002 | 53 | 110 | 2.0 | 6.0 | 0.00 | 0.00 | 0.00 | 74 | 1020.7 |
| 20260508172335 | 53 | 125 | 2.0 | 8.0 | 0.00 | 0.00 | 0.00 | 74 | 1020.0 |
| 20260508171602 | 53 | 120 | 1.0 | 6.0 | 0.00 | 0.00 | 0.00 | 74 | 1020.4 |
| 20260508171435 | 53 | 138 | 2.0 | 7.0 | 0.00 | 0.00 | 0.00 | 74 | 1019.8 |
| 20260508170534 | 54 | 142 | 1.0 | 5.0 | 0.00 | 0.00 | 0.00 | 75 | 1019.8 |
| 20260508170006 | 53 | 119 | 0.0 | 6.0 | 0.00 | 0.00 | 0.00 | 75 | 1020.1 |
| 20260508165635 | 54 | 142 | 1.0 | 6.0 | 0.00 | 0.00 | 0.00 | 74 | 1019.5 |
| 20260508164734 | 53 | 144 | 1.0 | 4.0 | 0.00 | 0.00 | 0.00 | 76 | 1019.4 |
| 20260508164601 | 53 | 137 | 0.0 | 4.0 | 0.00 | 0.00 | 0.00 | 77 | 1020.1 |
| 20260508163834 | 53 | 162 | 1.0 | 8.0 | 0.00 | 0.00 | 0.00 | 77 | 1019.7 |
| 20260508163002 | 52 | 163 | 0.0 | 6.0 | 0.00 | 0.00 | 0.00 | 76 | 1020.2 |
| 20260508162934 | 53 | 151 | 2.0 | 6.0 | 0.00 | 0.00 | 0.00 | 77 | 1019.7 |
| 20260508162035 | 53 | 137 | 2.0 | 7.0 | 0.00 | 0.00 | 0.00 | 76 | 1019.4 |
| 20260508161602 | 52 | 200 | 1.0 | 7.0 | 0.00 | 0.00 | 0.00 | 78 | 1019.9 |
| 20260508160235 | 53 | 145 | 2.0 | 5.0 | 0.00 | 0.00 | 0.00 | 78 | 1019.2 |
| 20260508160001 | 52 | 237 | 0.0 | 8.0 | 0.00 | 0.00 | 0.00 | 77 | 1019.6 |
| 20260508154614 | 52 | 205 | 0.0 | 4.0 | 0.00 | 0.00 | 0.00 | 79 | 1019.7 |
| 20260508153534 | 52 | 131 | 2.0 | 8.0 | 0.00 | 0.00 | 0.00 | 79 | 1019.1 |
| 20260508153003 | 51 | 176 | 1.0 | 5.0 | 0.00 | 0.00 | 0.00 | 79 | 1019.5 |
| 20260508152634 | 52 | 134 | 3.0 | 5.0 | 0.00 | 0.00 | 0.00 | 78 | 1018.9 |
| 20260508151734 | 52 | 124 | 1.0 | 10.0 | 0.00 | 0.00 | 0.00 | 78 | 1018.8 |
| 20260508151602 | 51 | 52 | 2.0 | 10.0 | 0.00 | 0.00 | 0.00 | 78 | 1019.3 |
| 20260508150835 | 52 | 131 | 0.0 | 4.0 | 0.00 | 0.00 | 0.00 | 79 | 1018.8 |
| 20260508150008 | 51 | 205 | 0.0 | 3.0 | 0.00 | 0.00 | 0.00 | 80 | 1019.4 |
| 20260508145935 | 52 | 149 | 1.0 | 3.0 | 0.00 | 0.00 | 0.00 | 80 | 1018.9 |
| 20260508145035 | 51 | 157 | 1.0 | 4.0 | 0.00 | 0.00 | 0.00 | 80 | 1018.8 |
| 20260508144607 | 51 | 224 | 0.0 | 3.0 | 0.00 | 0.00 | 0.00 | 81 | 1019.2 |
| 20260508144135 | 51 | 141 | 0.0 | 3.0 | 0.00 | 0.00 | 0.00 | 83 | 1018.7 |
| 20260508143234 | 50 | 0 | 0.0 | 4.0 | 0.00 | 0.00 | 0.00 | 85 | 1018.9 |
| 20260508143007 | 50 | 132 | 1.0 | 4.0 | 0.00 | 0.00 | 0.00 | 86 | 1019.5 |
| 20260508142335 | 50 | 0 | 0.0 | 0.0 | 0.00 | 0.00 | 0.00 | 88 | 1018.9 |
| 20260508141607 | 49 | 163 | 0.0 | 0.0 | 0.00 | 0.00 | 0.00 | 91 | 1019.4 |
| 20260508140535 | 48 | 0 | 0.0 | 0.0 | 0.00 | 0.00 | 0.00 | 92 | 1018.9 |
| 20260508140004 | 47 | 150 | 0.0 | 0.0 | 0.00 | 0.00 | 0.00 | 93 | 1019.2 |
| 20260508135635 | 47 | 0 | 0.0 | 0.0 | 0.00 | 0.00 | 0.00 | 93 | 1018.7 |
| 20260508134735 | 46 | 0 | 0.0 | 0.0 | 0.00 | 0.00 | 0.00 | 93 | 1018.5 |
| 20260508134603 | 46 | 150 | 0.0 | 0.0 | 0.00 | 0.00 | 0.00 | 93 | 1019.0 |
| 20260508133834 | 46 | 0 | 0.0 | 0.0 | 0.00 | 0.00 | 0.00 | 92 | 1018.3 |
| 20260508133003 | 45 | 153 | 0.0 | 0.0 | 0.00 | 0.00 | 0.00 | 92 | 1018.8 |
| 20260508132935 | 46 | 0 | 0.0 | 0.0 | 0.00 | 0.00 | 0.00 | 92 | 1018.3 |
| 20260508132035 | 46 | 0 | 0.0 | 0.0 | 0.00 | 0.00 | 0.00 | 91 | 1018.0 |
| 20260508131605 | 45 | 153 | 0.0 | 0.0 | 0.00 | 0.00 | 0.00 | 91 | 1018.6 |
| 20260508131135 | 46 | 0 | 0.0 | 0.0 | 0.00 | 0.00 | 0.00 | 92 | 1018.0 |
| 20260508130003 | 46 | 153 | 0.0 | 0.0 | 0.00 | 0.00 | 0.00 | 91 | 1018.4 |
| 20260508125335 | 46 | 0 | 0.0 | 0.0 | 0.00 | 0.00 | 0.00 | 91 | 1017.7 |
| 20260508124601 | 46 | 153 | 0.0 | 0.0 | 0.00 | 0.00 | 0.00 | 91 | 1018.0 |
| 20260508123535 | 47 | 0 | 0.0 | 0.0 | 0.00 | 0.00 | 0.00 | 90 | 1017.4 |
| 20260508123002 | 47 | 153 | 0.0 | 1.0 | 0.00 | 0.00 | 0.00 | 89 | 1018.0 |
| 20260508122635 | 47 | 134 | 0.0 | 2.0 | 0.00 | 0.00 | 0.00 | 89 | 1017.3 |
| 20260508121735 | 48 | 151 | 1.0 | 2.0 | 0.00 | 0.00 | 0.00 | 89 | 1017.4 |
| 20260508121607 | 47 | 128 | 0.0 | 2.0 | 0.00 | 0.00 | 0.00 | 89 | 1017.9 |
| 20260508120835 | 48 | 162 | 1.0 | 3.0 | 0.00 | 0.00 | 0.00 | 89 | 1017.3 |
| 20260508120002 | 47 | 159 | 1.0 | 3.0 | 0.00 | 0.00 | 0.00 | 89 | 1017.8 |
| 20260508115935 | 48 | 187 | 1.0 | 3.0 | 0.00 | 0.00 | 0.00 | 89 | 1017.2 |
| 20260508114603 | 47 | 179 | 1.0 | 6.0 | 0.00 | 0.00 | 0.00 | 89 | 1017.6 |
| 20260508113235 | 48 | 173 | 1.0 | 8.0 | 0.00 | 0.00 | 0.00 | 90 | 1016.9 |
| 20260508113005 | 47 | 175 | 1.0 | 8.0 | 0.00 | 0.00 | 0.00 | 90 | 1017.5 |
| 20260508112335 | 48 | 153 | 1.0 | 8.0 | 0.00 | 0.00 | 0.00 | 90 | 1016.8 |
| 20260508111607 | 47 | 200 | 1.0 | 3.0 | 0.00 | 0.00 | 0.00 | 90 | 1017.3 |
| 20260508111435 | 47 | 137 | 1.0 | 3.0 | 0.00 | 0.00 | 0.00 | 90 | 1016.7 |
| 20260508110006 | 46 | 210 | 1.0 | 4.0 | 0.00 | 0.00 | 0.00 | 90 | 1017.0 |
| 20260508104735 | 47 | 121 | 0.0 | 2.0 | 0.00 | 0.00 | 0.00 | 89 | 1016.4 |
| 20260508104613 | 47 | 136 | 0.0 | 2.0 | 0.00 | 0.00 | 0.00 | 89 | 1016.9 |
| 20260508103835 | 47 | 121 | 1.0 | 4.0 | 0.00 | 0.00 | 0.00 | 89 | 1016.4 |
| 20260508103003 | 47 | 116 | 1.0 | 4.0 | 0.00 | 0.00 | 0.00 | 89 | 1016.8 |
| 20260508102935 | 47 | 123 | 1.0 | 4.0 | 0.00 | 0.00 | 0.00 | 89 | 1016.2 |
| 20260508102035 | 48 | 125 | 1.0 | 3.0 | 0.00 | 0.00 | 0.00 | 89 | 1016.1 |
| 20260508101602 | 47 | 120 | 1.0 | 3.0 | 0.00 | 0.00 | 0.00 | 89 | 1016.7 |
| 20260508101135 | 47 | 121 | 0.0 | 3.0 | 0.00 | 0.00 | 0.00 | 90 | 1016.2 |
| 20260508100235 | 47 | 129 | 1.0 | 3.0 | 0.00 | 0.00 | 0.00 | 89 | 1016.0 |
| 20260508100006 | 47 | 133 | 0.0 | 1.0 | 0.00 | 0.00 | 0.00 | 89 | 1016.5 |
| 20260508095335 | 48 | 127 | 1.0 | 2.0 | 0.00 | 0.00 | 0.00 | 89 | 1016.0 |
| 20260508094601 | 47 | 124 | 0.0 | 2.0 | 0.00 | 0.00 | 0.00 | 89 | 1016.5 |
| 20260508094435 | 48 | 137 | 1.0 | 2.0 | 0.00 | 0.00 | 0.00 | 89 | 1016.0 |
| 20260508092635 | 48 | 0 | 0.0 | 3.0 | 0.00 | 0.00 | 0.00 | 89 | 1016.0 |
| 20260508091735 | 48 | 0 | 0.0 | 2.0 | 0.00 | 0.00 | 0.00 | 89 | 1016.0 |
| 20260508091610 | 47 | 150 | 0.0 | 2.0 | 0.00 | 0.00 | 0.00 | 89 | 1016.6 |
| 20260508090004 | 47 | 127 | 0.0 | 0.0 | 0.00 | 0.00 | 0.00 | 88 | 1016.5 |
| 20260508085935 | 48 | 0 | 0.0 | 0.0 | 0.00 | 0.00 | 0.00 | 88 | 1016.0 |
| 20260508085035 | 48 | 0 | 0.0 | 3.0 | 0.00 | 0.00 | 0.00 | 88 | 1016.0 |
| 20260508084616 | 47 | 113 | 0.0 | 3.0 | 0.00 | 0.00 | 0.00 | 89 | 1016.5 |
| 20260508084135 | 48 | 0 | 0.0 | 3.0 | 0.00 | 0.00 | 0.00 | 88 | 1015.9 |
| 20260508083235 | 48 | 0 | 0.0 | 3.0 | 0.00 | 0.00 | 0.00 | 88 | 1015.9 |
| 20260508083003 | 48 | 124 | 0.0 | 0.0 | 0.00 | 0.00 | 0.00 | 88 | 1016.5 |
| 20260508082335 | 48 | 0 | 0.0 | 0.0 | 0.00 | 0.00 | 0.00 | 88 | 1015.9 |
| 20260508081603 | 47 | 126 | 0.0 | 0.0 | 0.00 | 0.00 | 0.00 | 88 | 1016.5 |
| 20260508081435 | 48 | 0 | 0.0 | 0.0 | 0.00 | 0.00 | 0.00 | 88 | 1015.8 |
| 20260508080535 | 48 | 0 | 0.0 | 0.0 | 0.00 | 0.00 | 0.00 | 88 | 1015.8 |
| 20260508080006 | 48 | 134 | 0.0 | 0.0 | 0.00 | 0.00 | 0.00 | 88 | 1016.3 |
| 20260508074735 | 48 | 0 | 0.0 | 0.0 | 0.00 | 0.00 | 0.00 | 87 | 1015.8 |
| 20260508073030 | 48 | 133 | 0.0 | 1.0 | 0.00 | 0.00 | 0.00 | 86 | 1016.3 |
| 20260508072935 | 49 | 0 | 0.0 | 1.0 | 0.00 | 0.00 | 0.00 | 86 | 1015.7 |
| 20260508072035 | 49 | 0 | 0.0 | 0.0 | 0.00 | 0.00 | 0.00 | 85 | 1015.7 |
| 20260508071503 | 49 | 133 | 0.0 | 1.0 | 0.00 | 0.00 | 0.00 | 85 | 1016.2 |
| 20260508065335 | 50 | 0 | 0.0 | 0.0 | 0.00 | 0.00 | 0.00 | 84 | 1015.8 |
| 20260508064513 | 50 | 165 | 0.0 | 2.0 | 0.00 | 0.00 | 0.00 | 84 | 1016.4 |
| 20260508064435 | 50 | 0 | 0.0 | 2.0 | 0.00 | 0.00 | 0.00 | 84 | 1015.8 |
| 20260508063102 | 50 | 180 | 0.0 | 3.0 | 0.00 | 0.00 | 0.00 | 83 | 1016.4 |
| 20260508062635 | 51 | 0 | 0.0 | 4.0 | 0.00 | 0.00 | 0.00 | 83 | 1015.8 |
| 20260508061735 | 51 | 0 | 0.0 | 1.0 | 0.00 | 0.00 | 0.00 | 83 | 1015.8 |
| 20260508061503 | 50 | 124 | 0.0 | 1.0 | 0.00 | 0.00 | 0.00 | 83 | 1016.5 |
| 20260508055035 | 52 | 0 | 0.0 | 0.0 | 0.00 | 0.00 | 0.00 | 81 | 1016.1 |
| 20260508054501 | 52 | 211 | 0.0 | 2.0 | 0.00 | 0.00 | 0.00 | 80 | 1016.6 |
| 20260508054135 | 52 | 0 | 0.0 | 3.0 | 0.00 | 0.00 | 0.00 | 80 | 1016.1 |
| 20260508053235 | 52 | 0 | 0.0 | 1.0 | 0.00 | 0.00 | 0.00 | 80 | 1016.0 |
| 20260508053106 | 52 | 124 | 0.0 | 0.0 | 0.00 | 0.00 | 0.00 | 79 | 1016.5 |
| 20260508052335 | 53 | 0 | 0.0 | 4.0 | 0.00 | 0.00 | 0.00 | 79 | 1016.0 |
| 20260508051500 | 53 | 239 | 0.0 | 4.0 | 0.00 | 0.00 | 0.00 | 79 | 1016.6 |
| 20260508051435 | 53 | 138 | 0.0 | 4.0 | 0.00 | 0.00 | 0.00 | 79 | 1016.0 |
| 20260508050535 | 53 | 192 | 0.0 | 4.0 | 0.00 | 0.00 | 0.00 | 78 | 1016.0 |
| 20260508050118 | 53 | 162 | 0.0 | 2.0 | 0.00 | 0.00 | 0.00 | 78 | 1016.5 |
| 20260508044735 | 54 | 160 | 1.0 | 4.0 | 0.00 | 0.00 | 0.00 | 77 | 1015.9 |
| 20260508043108 | 54 | 187 | 0.0 | 3.0 | 0.00 | 0.00 | 0.00 | 76 | 1016.3 |
| 20260508042935 | 55 | 241 | 1.0 | 3.0 | 0.00 | 0.00 | 0.00 | 76 | 1015.8 |
| 20260508041504 | 55 | 358 | 1.0 | 3.0 | 0.00 | 0.00 | 0.00 | 75 | 1016.3 |
| 20260508041135 | 56 | 250 | 0.0 | 3.0 | 0.00 | 0.00 | 0.00 | 75 | 1015.8 |
| 20260508040235 | 56 | 250 | 0.0 | 4.0 | 0.00 | 0.00 | 0.00 | 74 | 1015.8 |
| 20260508040114 | 56 | 105 | 0.0 | 4.0 | 0.00 | 0.00 | 0.00 | 74 | 1016.4 |
| 20260508035335 | 57 | 215 | 0.0 | 6.0 | 0.00 | 0.00 | 0.00 | 74 | 1015.8 |
| 20260508034502 | 56 | 285 | 0.0 | 1.0 | 0.00 | 0.00 | 0.00 | 73 | 1016.2 |
| 20260508033535 | 58 | 0 | 0.0 | 4.0 | 0.00 | 0.00 | 0.00 | 72 | 1015.5 |
| 20260508033101 | 58 | 238 | 0.0 | 3.0 | 0.00 | 0.00 | 0.00 | 72 | 1016.0 |
| 20260508032635 | 58 | 208 | 0.0 | 4.0 | 0.00 | 0.00 | 0.00 | 72 | 1015.4 |
| 20260508031735 | 59 | 173 | 0.0 | 4.0 | 0.00 | 0.00 | 0.00 | 71 | 1015.4 |
| 20260508031506 | 59 | 134 | 0.0 | 2.0 | 0.00 | 0.00 | 0.00 | 71 | 1015.9 |
| 20260508030835 | 60 | 199 | 1.0 | 8.0 | 0.00 | 0.00 | 0.00 | 70 | 1015.4 |
| 20260508025935 | 60 | 214 | 1.0 | 4.0 | 0.00 | 0.00 | 0.00 | 68 | 1015.3 |
| 20260508024503 | 61 | 239 | 1.0 | 5.0 | 0.00 | 0.00 | 0.00 | 66 | 1015.8 |
| 20260508024135 | 62 | 193 | 1.0 | 3.0 | 0.00 | 0.00 | 0.00 | 66 | 1015.2 |
| 20260508023235 | 63 | 250 | 1.0 | 4.0 | 0.00 | 0.00 | 0.00 | 64 | 1015.2 |
| 20260508023101 | 63 | 112 | 1.0 | 4.0 | 0.00 | 0.00 | 0.00 | 64 | 1015.8 |
| 20260508022335 | 64 | 233 | 1.0 | 5.0 | 0.00 | 0.00 | 0.00 | 63 | 1015.3 |
| 20260508021502 | 64 | 196 | 1.0 | 5.0 | 0.00 | 0.00 | 0.00 | 62 | 1015.7 |
| 20260508021436 | 65 | 188 | 2.0 | 4.0 | 0.00 | 0.00 | 0.00 | 62 | 1015.2 |
| 20260508020535 | 65 | 217 | 2.0 | 6.0 | 0.00 | 0.00 | 0.00 | 62 | 1015.3 |
| 20260508015635 | 66 | 231 | 2.0 | 5.0 | 0.00 | 0.00 | 0.00 | 59 | 1015.3 |
| 20260508014502 | 69 | 356 | 1.0 | 6.0 | 0.00 | 0.00 | 0.00 | 55 | 1015.8 |
| 20260508013835 | 72 | 0 | 0.0 | 4.0 | 0.00 | 0.00 | 0.00 | 49 | 1015.3 |
| 20260508013103 | 72 | 153 | 0.0 | 1.0 | 0.00 | 0.00 | 0.00 | 47 | 1015.8 |
| 20260508012935 | 73 | 0 | 0.0 | 2.0 | 0.00 | 0.00 | 0.00 | 47 | 1015.2 |
| 20260508012035 | 71 | 297 | 1.0 | 2.0 | 0.00 | 0.00 | 0.00 | 50 | 1015.4 |
| 20260508011502 | 69 | 240 | 0.0 | 5.0 | 0.00 | 0.00 | 0.00 | 50 | 1016.0 |
| 20260508011135 | 69 | 315 | 1.0 | 5.0 | 0.00 | 0.00 | 0.00 | 52 | 1015.4 |
| 20260508010236 | 70 | 246 | 1.0 | 1.0 | 0.00 | 0.00 | 0.00 | 51 | 1015.6 |
| 20260508010100 | 69 | 210 | 0.0 | 1.0 | 0.00 | 0.00 | 0.00 | 54 | 1016.0 |
| 20260508005335 | 69 | 325 | 1.0 | 4.0 | 0.00 | 0.00 | 0.00 | 52 | 1015.7 |
| 20260508004500 | 70 | 31 | 0.0 | 3.0 | 0.00 | 0.00 | 0.00 | 49 | 1016.2 |
| 20260508004435 | 70 | 254 | 1.0 | 3.0 | 0.00 | 0.00 | 0.00 | 50 | 1015.7 |
| 20260508003536 | 70 | 286 | 1.0 | 5.0 | 0.00 | 0.00 | 0.00 | 50 | 1015.8 |
| 20260508003101 | 70 | 264 | 0.0 | 5.0 | 0.00 | 0.00 | 0.00 | 49 | 1016.2 |
| 20260508001501 | 70 | 307 | 0.0 | 4.0 | 0.00 | 0.00 | 0.00 | 48 | 1016.5 |
| 20260508000835 | 70 | 322 | 1.0 | 5.0 | 0.00 | 0.00 | 0.00 | 51 | 1016.0 |
| 20260508000103 | 70 | 230 | 1.0 | 5.0 | 0.00 | 0.00 | 0.00 | 47 | 1016.6 |
| 20260507234502 | 70 | 293 | 0.0 | 3.0 | 0.00 | 0.00 | 0.00 | 49 | 1016.6 |
| 20260507234136 | 70 | 154 | 2.0 | 3.0 | 0.00 | 0.00 | 0.00 | 52 | 1016.1 |
| 20260507233235 | 68 | 231 | 1.0 | 5.0 | 0.00 | 0.00 | 0.00 | 53 | 1016.5 |
| 20260507233117 | 68 | 252 | 1.0 | 5.0 | 0.00 | 0.00 | 0.00 | 51 | 1017.0 |
| 20260507232336 | 69 | 228 | 1.0 | 3.0 | 0.00 | 0.00 | 0.00 | 51 | 1016.5 |
| 20260507231503 | 67 | 90 | 0.0 | 6.0 | 0.00 | 0.00 | 0.00 | 54 | 1017.2 |
| 20260507231436 | 67 | 284 | 1.0 | 6.0 | 0.00 | 0.00 | 0.00 | 54 | 1016.7 |
| 20260507230536 | 68 | 247 | 2.0 | 3.0 | 0.00 | 0.00 | 0.00 | 51 | 1016.7 |
| 20260507230101 | 67 | 302 | 1.0 | 6.0 | 0.00 | 0.00 | 0.00 | 51 | 1017.3 |
| 20260507225635 | 68 | 283 | 1.0 | 6.0 | 0.00 | 0.00 | 0.00 | 53 | 1016.8 |